ATLAS 5 CENTAUR DEB, 44674

Orbit data source: Space-Track

ATLAS 5 CENTAUR DEB, 44674 is space debris in HEO originally from a launch on Wed, 17 Oct 2018 UTC launched from the Air Force Eastern Test Range (AFETR). Debris objects in space refer to the collection of defunct objects orbiting the Earth. Examples of debris include non-operational satellites, rocket bodies, and fragments generated from explosions, collisions, or faulty payload assembly.

Loading next visibility...
ATLAS 5 CENTAUR DEB details
Identifier
44674, 2018-079AL
Orbit
HEO
Last TLE update2 days ago
Origin
Flag of USULA (US)
ManufacturerULA Decatur
MissionSpacecraft
Bus & MotorUnknown
MassUnknown
Launch date (UTC)
2018-10-17 (6 years ago)
Launch vehicleUnknown
Launch site
Air Force Eastern Test Range (AFETR)
Object type
Payload
Rocket body
Debris
Shape & HBRUnknown
Radar Cross SectionRCS unknown

Expand to show TLE details & history

TLE from 2 days ago
0 ATLAS 5 CENTAUR DEB
1 44674U 18079AL  24335.45557802 -.00000062  00000-0  00000+0 0  9991
2 44674  12.2896  88.8876 4399528 232.1762  79.2160  1.93816843 38619
Epoch: 2024-11-30T10:56Z
Definitive object data (Epoch: 2024-11-30T10:56:01.94Z)
Latitude-0°
Longitude-145.05032°
Altitude23,628.595 km
Speed3.45 km/s
True Right ascension05h 55m 03s
True Declination0° 00' 00"
Sunlit
Object was in daylight at TLE epoch
Visualization TLE readout
Latitude11.93528°
Longitude-41.08104°
Altitude23,857.384 km
Speed3.42 km/s
Apparent Right ascension13h 20m 27s
Apparent Declination3° 50' 03"
Sunlit
Object is in daylight
Visualization observer readout
Local Sidereal Time04:43:56
Azimuth59.531° ENE
Elevation-26.107°
Doppler factor1
Orbital elements
Apogee altitude32,753.02 km
Perigee altitude8,841.317 km
Semi-major axis27,175.306 km
Eccentricity0.4399528
Inclination12.2896°
RAAN88.8876°
Arg. of periapsis232.1762°
True anomaly127.80596°
Mean anomaly79.216°
Eccentric anomaly103.70567°
Mean motion0.48449 °/min
BSTARUnknown
Orbital period743.06 mins
Loading maneuver chart data...

ATLAS 5 CENTAUR DEB Visibility forecast

Observer location: undefined°, undefined

Span
Click to sort rows by Start time (UTC) header in descending order
Start Az.
Max El. time (UTC)
Max El. Az.
Max El.
End time (UTC)
End Az.
559 mins2024-12-02 12:50:56.565Z253.252° W2024-12-02 21:23:56.565Z211.482° SW24.427°2024-12-02 22:09:56.565Z149.77° SSE
|